Find Starlink 3826

NORAD ID: 52347 Int'l Des: 2022-045 Owner: SPXS Country: US Constellation: starlink operational
LEOCIRCULAR

当前视图

正在加载3D地球...

About Starlink 3826

Starlink 3826 (NORAD 52347) is a starlink constellation satellite (v1.5) launched Apr 29, 2022 by SPXS of US. It operates in LEO, CIRCULAR orbit with a mass of 297.00 kg.

关于 Starlink 3826

正在加载描述...

即将过境

Passes for default location (London). Set your location on the main map for personalized predictions.

高度历史

Loading altitude history...

两行轨道根数

1 52347U 22045S 26164.10502833 .00000020 00000-0 19366-4 0 9996
2 52347 53.1611 130.7234 0001399 87.8175 272.2976 15.08834393230181
Epoch: Jun 13, 2026 • Age: 11 hours

当前状态

高度 558.2 km
速度 7.58 km/s
星下点 -50.73°S, 38.63°W
发射日期 Apr 29, 2022
运行时间 4.1 years
类型 internet

技术详情

分类 Payload
质量 297.00 kg
干质量 275.00 kg
总质量 297.00 kg
长度 0.20 m
直径 2.80 m
跨度 9.00 m
形状 Box + pan
制造商 SPXS
平台类型 Starlink
阶段状态 In Orbit
所有者/国家 SPXS/US

Most Searched